Tracking 31027 objects as of 19-Jul-2025
HD Live streaming from Space Station
objects crossing your sky now

LEASAT 5 PKM (SSUS-A)

Track LEASAT 5 PKM (SSUS-A) now!
10-day predictions


NORAD ID: 20411
Int'l Code: 1990-002C
Perigee: 218.0 km
Apogee: 9,594.7 km
Inclination: 27.3 °
Period: 198.6 minutes
Semi major axis: 11277 km
RCS: 3.708 m2 (large)
Launch date: January 9, 1990
Source: United States (US)
Launch site: AIR FORCE EASTERN TEST RANGE (AFETR)

Note: This is a ROCKET BODY
Your satellite tracking list
COSMOS 1743
Track 1 satellite(s)




NASA's NSSDC Master Catalog

Two Line Element Set (TLE):
1 20411U 90002C   25199.41841010  .00067231  00000-0  11279-2 0  9995
2 20411  27.3036 268.0537 4157325 264.1319  48.4228  7.24925119712654
Source of the keplerian elements: AFSPC